Location: Fontevrault
(47.1823°N, 0.0493°E)
Time: 14:02:32
(UTC+00:00)

Lacrosse 5 - Pass Details

Date: 04 November 2021
Orbit: 714 x 724 km, 57.0° (Epoch: 28 August)

Event Time Altitude Azimuth Distance (km) Brightness Sun altitude
Rises 19:32:55 0° 266° (W) 3,137 6.3 -29.9°
Reaches altitude 10° 19:35:30 10° 276° (W) 2,217 5.3 -30.3°
Enters shadow 19:39:48 34° 332° (NNW) 1,181 3.2 -31.1°
